Location: Koussan�
(15.2012°N, 12.5548°W)
Time: 12:07:45
(UTC+00:00)

ASC 2 Rocket - Pass Details

Date: 20 October 2020
Orbit: 555 x 2345 km, 24.0° (Epoch: 26 November)

Event Time Altitude Azimuth Distance (km) Brightness Sun altitude
Rises 18:37:03 0° 269° (W) 2,799 8.8 -3.3°
Reaches altitude 10° 18:39:10 10° 276° (W) 1,988 7.3 -3.8°
Maximum altitude 18:43:31 46° 350° (N) 997 4.2 -4.8°
Drops below altitude 10° 18:49:29 10° 63° (ENE) 2,727 5.7 -6.3°
Enters shadow 18:50:38 - 66° (ENE) 3,157 6.0 -6.5°
